Location: Devore Heights
(34.2372°N, 117.4156°W)
Time: 02:50:14
(UTC+00:00)

SR - Pass Details

Date: 15 September 2024
Orbit: 578 x 855 km, 66.7° (Epoch: 02 October)

Event Time Altitude Azimuth Distance (km) Brightness Sun altitude
Rises 19:53:50 0° 187° (S) 2,853 ? 58.3°
Reaches altitude 10° 19:56:13 10° 179° (S) 1,925 ? 58.2°
Maximum altitude 20:00:12 38° 112° (ESE) 900 ? 58.1°
Drops below altitude 10° 20:04:06 10° 44° (NE) 1,892 ? 58.0°
Sets 20:06:25 0° 36° (NE) 2,797 ? 57.9°
